This is the latest recevied weather packets stored in our database for station/object SQ7IQO. If no packets are shown the sender has not sent any weather packets the latest 10 day(s).
| Time | Temp. | Humidity | Pressure | Rain* | Wind** | Luminosity | Snow |
|---|---|---|---|---|---|---|---|
| 1788091183 | 27.78° C | 42% | 1015.7 hPa | 0 mm | 0.45 m/s, ° | - | - |
| 1788091123 | 27.78° C | 42% | 1015.7 hPa | 0 mm | 0 m/s | - | - |
| 1788091063 | 27.78° C | 42% | 1015.7 hPa | 0 mm | 0.45 m/s, ° | - | - |
| 1788091003 | 28.33° C | 43% | 1015.7 hPa | 0 mm | 0.89 m/s, ° | - | - |
| 1788090943 | 28.89° C | 43% | 1015.7 hPa | 0 mm | 0.89 m/s, ° | - | - |
| 1788090883 | 28.33° C | 43% | 1015.7 hPa | 0 mm | 0 m/s | - | - |
| 1788090823 | 27.78° C | 43% | 1015.7 hPa | 0 mm | 0 m/s | - | - |
| 1788090763 | 27.78° C | 44% | 1015.8 hPa | 0 mm | 0 m/s | - | - |
| 1788090703 | 27.22° C | 43% | 1015.8 hPa | 0 mm | 0 m/s | - | - |
| 1788090643 | 26.67° C | 44% | 1015.8 hPa | 0 mm | 0.45 m/s, ° | - | - |
| 1788090583 | 27.22° C | 43% | 1015.7 hPa | 0 mm | 0.89 m/s, ° | - | - |
| 1788090523 | 27.22° C | 43% | 1015.8 hPa | 0 mm | 0.89 m/s, ° | - | - |
| 1788090463 | 27.22° C | 44% | 1012.8 hPa | 0 mm | 0.89 m/s, ° | - | - |
| 1788090403 | 27.78° C | 45% | 1015.8 hPa | 0 mm | 0.89 m/s, ° | - | - |
| 1788090343 | 27.78° C | 42% | 1015.9 hPa | 0 mm | 0.45 m/s, ° | - | - |
| 1788090283 | 27.78° C | 43% | 1015.9 hPa | 0 mm | 0.45 m/s, ° | - | - |
| 1788090223 | 27.78° C | 42% | 1015.8 hPa | 0 mm | 0 m/s | - | - |
| 1788090163 | 27.78° C | 45% | 1015.8 hPa | 0 mm | 0.45 m/s, ° | - | - |
| 1788090103 | 27.78° C | 43% | 1015.9 hPa | 0 mm | 0.45 m/s, ° | - | - |
| 1788090043 | 27.78° C | 44% | 1015.9 hPa | 0 mm | 0.45 m/s, ° | - | - |
| 1788089983 | 27.78° C | 44% | 1015.9 hPa | 0 mm | 0 m/s | - | - |
| 1788089923 | 27.22° C | 43% | 1015.9 hPa | 0 mm | 0.45 m/s, ° | - | - |
| 1788089863 | 27.22° C | 45% | 1015.9 hPa | 0 mm | 1.34 m/s, ° | - | - |
| 1788089803 | 27.22° C | 45% | 1015.9 hPa | 0 mm | 0 m/s | - | - |
| 1788089743 | 27.78° C | 42% | 1015.9 hPa | 0 mm | 0.45 m/s, ° | - | - |
* Rain latest hour (hover to see other rain measurements)
** Current wind speed in m/s (hover to see current wind gust speed)